• In France
  • List of Countries
  • For 7 days
  • Water Temperature
  • Satellite Maps
  • Weather Map
  • Weather Widgets
  • user-avatar
    Login

    Hourly Weather Maydanskoe

    Today, 16 October, Tuesday

    Time Temperature Precipitation Wind Pressure Humidity
    00:00 +13°C° 0 mm 1 mps 718 mmHg 61%
    01:00 +13°C° 0 mm 1 mps 718 mmHg 62%
    02:00 +13°C° 0 mm 1 mps 718 mmHg 63%
    03:00 +13°C° 0 mm 1 mps 718 mmHg 66%
    04:00 +13°C° 0 mm 1 mps 718 mmHg 66%
    05:00 +13°C° 0 mm 1 mps 719 mmHg 66%
    06:00 +13°C° 0 mm 1 mps 719 mmHg 67%
    07:00 +15°C° 0 mm 1 mps 719 mmHg 62%
    08:00 +16°C° 0 mm 1 mps 719 mmHg 57%
    09:00 +19°C° 0 mm 1 mps 719 mmHg 52%
    10:00 +19°C° 0 mm 2 mps 719 mmHg 52%
    11:00 +20°C° 0 mm 2 mps 719 mmHg 51%
    12:00 +21°C° 0 mm 3 mps 719 mmHg 50%
    13:00 +21°C° 0 mm 3 mps 719 mmHg 52%
    14:00 +20°C° 0 mm 3 mps 719 mmHg 54%
    15:00 +20°C° 0 mm 3 mps 719 mmHg 57%
    16:00 +19°C° 0 mm 2 mps 719 mmHg 66%
    17:00 +17°C° 0 mm 2 mps 719 mmHg 75%
    18:00 +15°C° 0 mm 1 mps 719 mmHg 84%
    19:00 +15°C° 0 mm 1 mps 719 mmHg 84%
    20:00 +15°C° 0 mm 1 mps 719 mmHg 84%
    21:00 +14°C° 0 mm 1 mps 719 mmHg 85%
    22:00 +14°C° 0 mm 1 mps 718 mmHg 83%
    23:00 +14°C° 0 mm 2 mps 718 mmHg 82%

    Tomorrow, 17 October, Wednesday

    Time Temperature Precipitation Wind Pressure Humidity
    00:00 +14°C° 0 mm 2 mps 718 mmHg 81%
    01:00 +14°C° 0 mm 2 mps 718 mmHg 80%
    02:00 +14°C° 0 mm 2 mps 718 mmHg 78%
    03:00 +13°C° 0 mm 2 mps 718 mmHg 77%
    04:00 +13°C° 0 mm 2 mps 718 mmHg 75%
    05:00 +13°C° 0 mm 2 mps 718 mmHg 74%
    06:00 +13°C° 0 mm 2 mps 717 mmHg 72%
    07:00 +15°C° 0 mm 2 mps 718 mmHg 64%
    08:00 +17°C° 0 mm 2 mps 718 mmHg 56%
    09:00 +19°C° 0 mm 2 mps 718 mmHg 47%
    10:00 +20°C° 0 mm 2 mps 718 mmHg 45%
    11:00 +21°C° 0 mm 3 mps 718 mmHg 44%
    12:00 +22°C° 0 mm 3 mps 718 mmHg 42%
    13:00 +22°C° 0 mm 3 mps 717 mmHg 45%
    14:00 +22°C° 0 mm 3 mps 717 mmHg 48%
    15:00 +22°C° 0 mm 3 mps 717 mmHg 51%
    16:00 +20°C° 0 mm 2 mps 717 mmHg 61%
    17:00 +18°C° 0 mm 2 mps 716 mmHg 71%
    18:00 +16°C° 0 mm 1 mps 716 mmHg 81%
    19:00 +16°C° 0 mm 1 mps 716 mmHg 80%
    20:00 +15°C° 0 mm 1 mps 716 mmHg 78%
    21:00 +15°C° 0 mm 1 mps 716 mmHg 76%
    22:00 +15°C° 0 mm 1 mps 716 mmHg 73%
    23:00 +15°C° 0 mm 1 mps 716 mmHg 70%

    Day after tomorrow, 18 October, Thursday

    Time Temperature Precipitation Wind Pressure Humidity
    00:00 +15°C° 0 mm 1 mps 715 mmHg 66%
    01:00 +14°C° 0 mm 1 mps 715 mmHg 64%
    02:00 +14°C° 0 mm 1 mps 715 mmHg 62%
    03:00 +14°C° 0 mm 1 mps 715 mmHg 59%
    04:00 +14°C° 0 mm 1 mps 715 mmHg 57%
    05:00 +13°C° 0 mm 1 mps 715 mmHg 54%
    06:00 +13°C° 0 mm 1 mps 715 mmHg 51%
    07:00 +15°C° 0 mm 1 mps 715 mmHg 46%
    08:00 +19°C° 0 mm 1 mps 715 mmHg 42%
    09:00 +21°C° 0 mm 1 mps 716 mmHg 37%
    10:00 +21°C° 0 mm 1 mps 716 mmHg 37%
    11:00 +21°C° 0 mm 2 mps 716 mmHg 37%
    12:00 +23°C° 0 mm 2 mps 716 mmHg 36%
    13:00 +23°C° 0 mm 2 mps 716 mmHg 40%
    14:00 +23°C° 0 mm 2 mps 715 mmHg 44%
    15:00 +21°C° 0 mm 2 mps 715 mmHg 48%
    16:00 +19°C° 0 mm 2 mps 715 mmHg 59%
    17:00 +19°C° 0 mm 1 mps 715 mmHg 70%
    18:00 +16°C° 0 mm 1 mps 715 mmHg 81%
    19:00 +15°C° 0 mm 1 mps 715 mmHg 79%
    20:00 +15°C° 0 mm 1 mps 715 mmHg 77%
    21:00 +15°C° 0 mm 1 mps 716 mmHg 75%
    22:00 +15°C° 0 mm 1 mps 715 mmHg 71%
    23:00 +14°C° 0 mm 1 mps 715 mmHg 68%

    19 October, Friday

    Time Temperature Precipitation Wind Pressure Humidity
    00:00 +14°C° 0 mm 2 mps 715 mmHg 64%
    01:00 +14°C° 0 mm 2 mps 715 mmHg 62%
    02:00 +14°C° 0 mm 2 mps 715 mmHg 60%
    03:00 +14°C° 0 mm 2 mps 715 mmHg 58%
    04:00 +13°C° 0 mm 2 mps 715 mmHg 56%
    05:00 +13°C° 0 mm 2 mps 715 mmHg 55%
    06:00 +13°C° 0 mm 2 mps 715 mmHg 53%
    07:00 +15°C° 0 mm 2 mps 715 mmHg 46%
    08:00 +18°C° 0 mm 2 mps 716 mmHg 40%
    09:00 +21°C° 0 mm 1 mps 716 mmHg 34%
    10:00 +21°C° 0 mm 2 mps 716 mmHg 33%
    11:00 +23°C° 0 mm 2 mps 716 mmHg 31%
    12:00 +24°C° 0 mm 3 mps 716 mmHg 30%
    13:00 +24°C° 0 mm 3 mps 715 mmHg 34%
    14:00 +24°C° 0 mm 3 mps 715 mmHg 39%
    15:00 +22°C° 0 mm 3 mps 715 mmHg 43%
    16:00 +20°C° 0 mm 3 mps 715 mmHg 53%
    17:00 +18°C° 0 mm 2 mps 715 mmHg 63%
    18:00 +16°C° 0 mm 2 mps 714 mmHg 73%
    19:00 +16°C° 0 mm 2 mps 714 mmHg 71%
    20:00 +16°C° 0 mm 2 mps 715 mmHg 69%
    21:00 +16°C° 0 mm 2 mps 715 mmHg 67%
    22:00 +16°C° 0 mm 2 mps 714 mmHg 67%
    23:00 +15°C° 0 mm 2 mps 714 mmHg 66%

    20 October, Saturday

    Time Temperature Precipitation Wind Pressure Humidity
    00:00 +14°C° 0 mm 3 mps 714 mmHg 65%
    01:00 +14°C° 0 mm 3 mps 713 mmHg 64%
    02:00 +14°C° 0 mm 3 mps 713 mmHg 64%
    03:00 +14°C° 0 mm 3 mps 713 mmHg 63%
    04:00 +14°C° 0 mm 3 mps 713 mmHg 60%
    05:00 +13°C° 0 mm 3 mps 713 mmHg 57%
    06:00 +14°C° 0 mm 2 mps 713 mmHg 54%
    07:00 +17°C° 0 mm 2 mps 713 mmHg 48%
    08:00 +19°C° 0 mm 2 mps 713 mmHg 41%
    09:00 +23°C° 0 mm 2 mps 713 mmHg 35%
    10:00 +24°C° 0 mm 2 mps 713 mmHg 34%
    11:00 +25°C° 0 mm 2 mps 713 mmHg 32%
    12:00 +26°C° 0 mm 2 mps 712 mmHg 31%
    13:00 +25°C° 0 mm 2 mps 712 mmHg 33%
    14:00 +25°C° 0 mm 2 mps 712 mmHg 36%
    15:00 +25°C° 0 mm 2 mps 712 mmHg 39%
    16:00 +23°C° 0 mm 2 mps 712 mmHg 46%
    17:00 +21°C° 0 mm 1 mps 711 mmHg 54%
    18:00 +19°C° 0 mm 1 mps 711 mmHg 61%
    19:00 +19°C° 0 mm 1 mps 711 mmHg 59%
    20:00 +19°C° 0 mm 1 mps 711 mmHg 58%
    21:00 +19°C° 0 mm 1 mps 711 mmHg 56%
    22:00 +19°C° 0 mm 1 mps 711 mmHg 55%
    23:00 +18°C° 0 mm 1 mps 711 mmHg 55%

    21 October, Sunday

    Time Temperature Precipitation Wind Pressure Humidity
    00:00 +18°C° 0 mm 1 mps 711 mmHg 54%
    01:00 +18°C° 0 mm 1 mps 710 mmHg 54%
    02:00 +18°C° 0 mm 1 mps 710 mmHg 54%
    03:00 +16°C° 0 mm 1 mps 710 mmHg 54%
    04:00 +16°C° 0 mm 1 mps 710 mmHg 54%
    05:00 +16°C° 0 mm 2 mps 710 mmHg 54%
    06:00 +16°C° 0 mm 2 mps 710 mmHg 54%
    07:00 +19°C° 0 mm 1 mps 710 mmHg 50%
    08:00 +21°C° 0 mm 1 mps 711 mmHg 46%
    09:00 +22°C° 0 mm 1 mps 711 mmHg 42%
    10:00 +23°C° 0 mm 1 mps 711 mmHg 42%
    11:00 +24°C° 0 mm 1 mps 711 mmHg 41%
    12:00 +25°C° 0 mm 2 mps 710 mmHg 40%
    13:00 +25°C° 0 mm 2 mps 710 mmHg 42%
    14:00 +24°C° 0 mm 2 mps 710 mmHg 44%
    15:00 +24°C° 0 mm 2 mps 710 mmHg 47%
    16:00 +22°C° 0 mm 1 mps 710 mmHg 54%
    17:00 +21°C° 0 mm 1 mps 710 mmHg 61%
    18:00 +17°C° 0 mm 0 mps 710 mmHg 69%
    19:00 +19°C° 0.1 mm 1 mps 710 mmHg 69%
    20:00 +19°C° 0.1 mm 1 mps 710 mmHg 69%
    21:00 +19°C° 0.1 mm 1 mps 710 mmHg 70%
    22:00 +18°C° 0.1 mm 1 mps 710 mmHg 70%
    23:00 +18°C° 0.1 mm 1 mps 710 mmHg 71%
    Show more